Weather in Mombetsu

Japan     44°20′47″N   143°21′15″E
temp.,
°C
wind,
m/s
gust,
m/s
humid.,
%
clouds,
%
prec.,
mm/h
press.,
hPa
HPBL,
m
27 july, tue
tue2700:00+18ssw118587 0.0 100814
03:00+17sw11938 0.0 100712
06:00+20sse237061 0.0 100797
09:00+29ese36565 0.0 1006971
12:00+30e575867 0.0 10051292
15:00+28e576714 0.0 1004824
18:00+26e257882 0.0 1003254
21:00+21ssw119749 0.0 100518
28 july, wed
wed2800:00+21sw229545 0.0 100537
03:00+20sw119529 0.0 100517
06:00+23sw11826 0.0 1007108
09:00+28ene23635 0.0 1006849
12:00+31ne45464 0.0 10041207
15:00+29ne45545 0.0 1004503
18:00+23nnw12817 0.0 100462
21:00+21ssw11871 0.0 100414
29 july, thu
thu2900:00+21ssw22845 0.0 100430
03:00+21sw228243 0.0 100428
06:00+23sw1176100 0.0 100480
09:00+29ne115443 0.0 1004865
12:00+30ne435156 0.0 10021323
15:00+27ne2363100 0.0 1002540
18:00+24n118382 0.0 100238
21:00+21sw119025 0.0 100316
30 july, fri
fri3000:00+21sw229259 0.0 100231
03:00+21wsw119495 0.0 100214
06:00+23ssw12825 0.0 1002146
09:00+29ene226128 0.0 10011077
12:00+29nne325855 0.2 10011000
15:00+30ene225643 0.4 10001175
18:00+25e22750 0.1 100130
21:00+21wnw218939 0.1 100218
31 july, sat
sat3100:00+21wsw1193100 0.0 100221
03:00+20sw2294100 0.0 100235
06:00+23wsw1283100 0.0 1003115
09:00+29ene116297 0.0 10031013
12:00+29ene435893 0.0 1002763
15:00+28ene33591 0.0 1002589
18:00+24ne227669 0.0 100354
21:00+20wsw11860 0.0 100511